Other Public Products
Issued by NWS Charleston, SC

Home | Current Version | Previous Version | Text Only | Print | Product List | Glossary On
Versions: 1 2 3 4 5 6 7 8 9 10 11 12 13 14 15 16 17 18 19 20 21 22 23 24 25 26 27 28 29 30 31 32 33 34 35 36 37 38 39 40 41 42 43 44 45 46 47 48 49 50
187
FPUS82 KCHS 101412
OPUCHS

TEST...KCHS/KSAV Gateway Observations...TEST
National Weather Service Charleston SC
900 AM EST SAT DEC 10 2016

NOTE: "fair" indicates few or no clouds below 12,000 feet with no
significant weather and/or obstructions to visibility.

SCZ050-WAZ558-NCZ071-TXZ119-213-PAZ071-DCZ001-FLZ074-172-MI076-
NYZ176-178-MAZ016-IL014-TNZ027-NJZ106-GAZ044-MD014-101500-
...Gateway Observations for Charleston International...

CITY           SKY/WX    TMP DP  RH WIND       PRES   REMARKS
Chas Airport   MOSUNNY   37  23  56 NE10      30.55R WCI  30
Seattle        MOCLDY    39  37  92 SW10      29.85R WCI  32
Charlotte      SUNNY     30  16  56 E6        30.55R WCI  24
Dallas DFW     CLOUDY    38  24  57 SE10      30.44F WCI  31
Dallas Love    CLOUDY    39  25  57 SE10      30.46F WCI  32
Philladelphia  PTSUNNY   31  17  56 NW10      30.46S WCI  22
Wash National  MOSUNNY   33  15  47 NW8G18    30.51S WCI  26
Baltimore      MOSUNNY   31  18  58 W12       30.48R WCI  22
Miami          LGT RAIN  67  67 100 N6        30.25R FOG
Detroit        MOCLDY    24  18  77 W10       30.47R WCI  14
Newark         PTSUNNY   30  22  72 W10       30.41R WCI  21
Laguardia      PTSUNNY   32  17  54 NW15      30.40R WCI  22
J F K          PTSUNNY   32  20  61 W10       30.42R WCI  24
Boston Logan   MOSUNNY   23   7  50 W15       30.31R WCI  10
Ft. Lauderdale LGT RAIN  69  68  96 NE9       30.25R FOG
Chicago O`Hare MOCLDY    18  12  77 W10       30.51R WCI   6
Chicago Midway MOCLDY    20  11  68 W9        30.52R WCI   9
Houston Bush   CLOUDY    39  29  67 NE12      30.50S WCI  32
Houston Hobby  MOCLDY    43  32  65 E8        30.49S
Nashville      MOSUNNY   22  18  85 CALM      30.62R
Atlanta        SUNNY     30  20  66 NW7       30.52R WCI  23

$$

GAZ044-118-TXZ119-213-NCZ071-DCZ001-MDZ014-506-PAZ021-071-NJZ106-
NYZ176-178-MAZ106-OHZ011-021-055-MIZ076-KYZ091-ILZ014-INZ047-
MNZ060-101500-
...Gateway Observations for Savannah International...

CITY           SKY/WX    TMP DP  RH WIND       PRES   REMARKS
Savannah Arpt  MOSUNNY   40  30  67 NE8       30.53R WCI  34
Atlanta        SUNNY     30  20  66 NW7       30.52R WCI  23
Charlotte      SUNNY     30  16  56 E6        30.55R WCI  24
Dallas DFW     CLOUDY    38  24  57 SE10      30.44F WCI  31
Houston Bush   CLOUDY    39  29  67 NE12      30.50S WCI  32
Wash National  MOSUNNY   33  15  47 NW8G18    30.51S WCI  26
Wash Dulles    MOSUNNY   30  14  51 NW8       30.50S WCI  22
Baltimore      MOSUNNY   31  18  58 W12       30.48R WCI  22
Philadelphia   PTSUNNY   31  17  56 NW10      30.46S WCI  22
Newark         PTSUNNY   30  22  72 W10       30.41R WCI  21
Laguardia      PTSUNNY   32  17  54 NW15      30.40R WCI  22
J F K          PTSUNNY   32  20  61 W10       30.42R WCI  24
Boston         MOSUNNY   23   7  50 W15       30.31R WCI  10
Pittsburg      LGT SNOW  25  18  74 SW9       30.46R WCI  15
Akron          PTSUNNY   22  14  71 W13       30.45S WCI  10
Cleveland      CLOUDY    24  15  68 SW13      30.48F WCI  12
Cincinnati     PTSUNNY   21  17  84 SW5       30.55S WCI  15
Columbus       NOT AVBL
Detroit        MOCLDY    24  18  77 W10       30.47R WCI  14
Chicago O`Hare MOCLDY    18  12  77 W10       30.51R WCI   6
Minneapolis    CLOUDY     5  -1  76 NW3       30.50F
Indianapolis   CLOUDY    22  15  75 W8        30.54S WCI  12

$$




USA.gov is the U.S. government's official web portal to all federal, state and local government web resources and services.